When you browse on this site, cookies collect data to enhance your experience and personalize the content and advertising you see.
Visit our Privacy Policy to learn more. By continuing to use the site, you agree to this use of cookies and data.
  • In Latvia
  • List of Countries
  • For 7 days
  • Water Temperature
  • Satellite Maps
  • Weather Map
  • Weather Widgets
  • user-avatar
    Login

    Hourly Weather Mezotne

    Today, 23 February, Saturday

    Time Temperature Precipitation Wind Pressure Humidity
    00:00 -4°C° 0 mm 1 mps 780 mmHg 60%
    01:00 -6°C° 0 mm 2 mps 780 mmHg 59%
    02:00 -6°C° 0 mm 2 mps 781 mmHg 57%
    03:00 -6°C° 0 mm 2 mps 780 mmHg 53%
    04:00 -6°C° 0 mm 2 mps 780 mmHg 48%
    05:00 -7°C° 0 mm 3 mps 779 mmHg 44%
    06:00 -6°C° 0 mm 3 mps 779 mmHg 41%
    07:00 -7°C° 0 mm 4 mps 779 mmHg 38%
    08:00 -6°C° 0 mm 5 mps 779 mmHg 35%
    09:00 -6°C° 0 mm 5 mps 778 mmHg 42%
    10:00 -5°C° 0 mm 6 mps 778 mmHg 50%
    11:00 -5°C° 0 mm 6 mps 777 mmHg 58%
    12:00 -4°C° 0 mm 6 mps 777 mmHg 59%
    13:00 -4°C° 0 mm 6 mps 776 mmHg 61%
    14:00 -3°C° 0 mm 6 mps 776 mmHg 62%
    15:00 -3°C° 0 mm 6 mps 775 mmHg 66%
    16:00 -1°C° 0 mm 5 mps 775 mmHg 69%
    17:00 -1°C° 0 mm 5 mps 774 mmHg 73%
    18:00 -1°C° 0 mm 5 mps 774 mmHg 76%
    19:00 -1°C° 0 mm 5 mps 774 mmHg 78%
    20:00 -1°C° 0 mm 4 mps 774 mmHg 81%
    21:00 -2°C° 0 mm 4 mps 774 mmHg 83%
    22:00 -2°C° 0 mm 4 mps 773 mmHg 85%
    23:00 -1°C° 0 mm 3 mps 773 mmHg 87%

    Tomorrow, 24 February, Sunday

    Time Temperature Precipitation Wind Pressure Humidity
    00:00 -1°C° 0 mm 3 mps 773 mmHg 89%
    01:00 -1°C° 0 mm 3 mps 773 mmHg 90%
    02:00 -1°C° 0 mm 3 mps 772 mmHg 92%
    03:00 -1°C° 0 mm 3 mps 772 mmHg 92%
    04:00 -1°C° 0 mm 3 mps 772 mmHg 93%
    05:00 -1°C° 0 mm 3 mps 772 mmHg 94%
    06:00 -1°C° 0 mm 2 mps 772 mmHg 94%
    07:00 -1°C° 0 mm 2 mps 771 mmHg 95%
    08:00 -2°C° 0 mm 2 mps 771 mmHg 95%
    09:00 +1°C° 0 mm 2 mps 771 mmHg 91%
    10:00 +1°C° 0 mm 3 mps 771 mmHg 87%
    11:00 +2°C° 0 mm 3 mps 771 mmHg 83%
    12:00 +3°C° 0 mm 3 mps 770 mmHg 81%
    13:00 +3°C° 0 mm 4 mps 770 mmHg 80%
    14:00 +4°C° 0 mm 4 mps 770 mmHg 78%
    15:00 +4°C° 0 mm 4 mps 769 mmHg 81%
    16:00 +3°C° 0 mm 4 mps 769 mmHg 84%
    17:00 +3°C° 0 mm 4 mps 768 mmHg 87%
    18:00 +1°C° 0 mm 4 mps 768 mmHg 88%
    19:00 +1°C° 0 mm 4 mps 768 mmHg 89%
    20:00 0°C° 0 mm 4 mps 769 mmHg 90%
    21:00 0°C° 0 mm 3 mps 769 mmHg 91%
    22:00 0°C° 0 mm 3 mps 769 mmHg 92%
    23:00 0°C° 0 mm 3 mps 769 mmHg 94%

    Day after tomorrow, 25 February, Monday

    Time Temperature Precipitation Wind Pressure Humidity
    00:00 0°C° 0 mm 3 mps 769 mmHg 92%
    01:00 0°C° 0 mm 3 mps 769 mmHg 91%
    02:00 0°C° 0 mm 3 mps 769 mmHg 89%
    03:00 0°C° 0 mm 3 mps 769 mmHg 88%
    04:00 0°C° 0 mm 3 mps 769 mmHg 87%
    05:00 -1°C° 0 mm 4 mps 769 mmHg 87%
    06:00 -1°C° 0 mm 4 mps 768 mmHg 85%
    07:00 0°C° 0 mm 3 mps 768 mmHg 84%
    08:00 0°C° 0 mm 3 mps 768 mmHg 83%
    09:00 0°C° 0 mm 4 mps 768 mmHg 79%
    10:00 +2°C° 0 mm 6 mps 768 mmHg 75%
    11:00 +4°C° 0 mm 7 mps 767 mmHg 71%
    12:00 +4°C° 0 mm 7 mps 767 mmHg 68%
    13:00 +4°C° 0 mm 6 mps 767 mmHg 65%
    14:00 +4°C° 0 mm 6 mps 766 mmHg 61%
    15:00 +4°C° 0 mm 6 mps 766 mmHg 66%
    16:00 +3°C° 0 mm 5 mps 766 mmHg 70%
    17:00 +2°C° 0 mm 5 mps 766 mmHg 74%
    18:00 +1°C° 0 mm 4 mps 766 mmHg 77%
    19:00 0°C° 0 mm 4 mps 766 mmHg 80%
    20:00 0°C° 0 mm 4 mps 766 mmHg 84%
    21:00 -1°C° 0 mm 4 mps 766 mmHg 84%
    22:00 -1°C° 0 mm 4 mps 766 mmHg 84%
    23:00 -1°C° 0 mm 4 mps 766 mmHg 84%

    26 February, Tuesday

    Time Temperature Precipitation Wind Pressure Humidity
    00:00 0°C° 0 mm 4 mps 765 mmHg 83%
    01:00 0°C° 0 mm 4 mps 765 mmHg 81%
    02:00 0°C° 0 mm 4 mps 765 mmHg 80%
    03:00 0°C° 0 mm 4 mps 764 mmHg 79%
    04:00 0°C° 0 mm 5 mps 764 mmHg 77%
    05:00 0°C° 0 mm 5 mps 763 mmHg 76%
    06:00 0°C° 0 mm 5 mps 763 mmHg 80%
    07:00 0°C° 0 mm 5 mps 763 mmHg 84%
    08:00 0°C° 0 mm 5 mps 762 mmHg 87%
    09:00 +1°C° 0 mm 6 mps 762 mmHg 83%
    10:00 +2°C° 0 mm 6 mps 762 mmHg 78%
    11:00 +4°C° 0 mm 7 mps 762 mmHg 73%
    12:00 +4°C° 0 mm 7 mps 762 mmHg 70%
    13:00 +4°C° 0 mm 7 mps 762 mmHg 68%
    14:00 +4°C° 0 mm 7 mps 762 mmHg 65%
    15:00 +4°C° 0 mm 7 mps 763 mmHg 66%
    16:00 +3°C° 0 mm 6 mps 763 mmHg 68%
    17:00 +3°C° 0 mm 5 mps 763 mmHg 70%
    18:00 +2°C° 0 mm 5 mps 764 mmHg 75%
    19:00 +1°C° 0 mm 4 mps 764 mmHg 80%
    20:00 +1°C° 0 mm 3 mps 765 mmHg 85%
    21:00 +1°C° 0 mm 3 mps 765 mmHg 87%
    22:00 0°C° 0 mm 3 mps 765 mmHg 89%
    23:00 0°C° 0 mm 3 mps 765 mmHg 91%

    27 February, Wednesday

    Time Temperature Precipitation Wind Pressure Humidity
    00:00 0°C° 0 mm 3 mps 765 mmHg 92%
    01:00 -1°C° 0 mm 2 mps 765 mmHg 93%
    02:00 -1°C° 0 mm 2 mps 765 mmHg 93%
    03:00 -1°C° 0 mm 2 mps 765 mmHg 93%
    04:00 -1°C° 0 mm 2 mps 764 mmHg 92%
    05:00 -1°C° 0 mm 2 mps 764 mmHg 91%
    06:00 +1°C° 0 mm 2 mps 763 mmHg 89%
    07:00 +1°C° 0 mm 2 mps 763 mmHg 87%
    08:00 +1°C° 0 mm 2 mps 763 mmHg 85%
    09:00 +2°C° 0 mm 3 mps 762 mmHg 80%
    10:00 +3°C° 0 mm 3 mps 762 mmHg 76%
    11:00 +4°C° 0 mm 4 mps 762 mmHg 71%
    12:00 +4°C° 0 mm 4 mps 761 mmHg 75%
    13:00 +4°C° 0 mm 4 mps 761 mmHg 80%
    14:00 +4°C° 0 mm 3 mps 760 mmHg 84%
    15:00 +4°C° 0 mm 3 mps 760 mmHg 81%
    16:00 +4°C° 0 mm 3 mps 760 mmHg 78%
    17:00 +4°C° 0 mm 2 mps 760 mmHg 75%
    18:00 +3°C° 0 mm 2 mps 760 mmHg 77%
    19:00 +3°C° 0 mm 2 mps 760 mmHg 79%
    20:00 +2°C° 0 mm 2 mps 760 mmHg 81%
    21:00 +2°C° 0 mm 2 mps 759 mmHg 81%
    22:00 +2°C° 0 mm 2 mps 758 mmHg 82%
    23:00 +2°C° 0 mm 2 mps 758 mmHg 82%

    28 February, Thursday

    Time Temperature Precipitation Wind Pressure Humidity
    00:00 +2°C° 0 mm 2 mps 757 mmHg 81%
    01:00 +1°C° 0 mm 3 mps 756 mmHg 80%
    02:00 +1°C° 0 mm 3 mps 755 mmHg 79%
    03:00 +1°C° 0 mm 3 mps 754 mmHg 77%
    04:00 +1°C° 0 mm 3 mps 753 mmHg 74%
    05:00 0°C° 0 mm 4 mps 752 mmHg 72%
    06:00 0°C° 0.1 mm 4 mps 750 mmHg 76%
    07:00 0°C° 0.1 mm 5 mps 749 mmHg 81%
    08:00 +1°C° 0.1 mm 5 mps 747 mmHg 85%
    09:00 +1°C° 0.1 mm 5 mps 746 mmHg 86%
    10:00 +2°C° 0.1 mm 5 mps 745 mmHg 87%
    11:00 +2°C° 0.1 mm 5 mps 744 mmHg 88%
    12:00 +3°C° 0 mm 5 mps 744 mmHg 82%
    13:00 +3°C° 0 mm 6 mps 744 mmHg 76%
    14:00 +4°C° 0 mm 6 mps 744 mmHg 70%
    15:00 +3°C° 0 mm 6 mps 744 mmHg 68%
    16:00 +3°C° 0 mm 6 mps 744 mmHg 67%
    17:00 +3°C° 0 mm 5 mps 744 mmHg 65%
    18:00 +2°C° 0 mm 6 mps 744 mmHg 67%
    19:00 +2°C° 0 mm 7 mps 745 mmHg 70%
    20:00 0°C° 0 mm 7 mps 745 mmHg 72%
    21:00 -1°C° 0 mm 7 mps 746 mmHg 68%
    22:00 -2°C° 0 mm 7 mps 747 mmHg 65%
    23:00 -3°C° 0 mm 7 mps 747 mmHg 61%
    Show more